GW5520 Weather Reports


Display with metric or nautical units.
time (UTC)temp
F
wind
direction
speed
MPH
gust
MPH
rain 1hr
in
rain 24hr
in
rain mn
in
humidity
%
barometer
mb
20260504050611 66 197 6.0 15.0 0.00 0.00 0.00 51
20260504050108 66 208 7.0 12.0 0.00 0.00 0.00 50
20260504045605 66 228 5.0 11.0 0.00 0.00 0.00 50
20260504045100 66 213 4.0 13.0 0.00 0.00 0.00 50
20260504044558 66 210 11.0 14.0 0.00 0.00 0.00 49
20260504044054 66 203 5.0 11.0 0.00 0.00 0.00 49
20260504043552 66 209 6.0 12.0 0.00 0.00 0.00 49
20260504043049 66 202 5.0 12.0 0.00 0.00 0.00 48
20260504042546 66 215 5.0 14.0 0.00 0.00 0.00 48
20260504042043 66 213 12.0 15.0 0.00 0.00 0.00 47
20260504041538 66 193 7.0 10.0 0.00 0.00 0.00 47
20260504041035 66 239 3.0 11.0 0.00 0.00 0.00 47
20260504040532 66 195 4.0 8.0 0.00 0.00 0.00 46
20260504040029 67 220 9.0 11.0 0.00 0.00 0.00 46
20260504035526 66 211 6.0 8.0 0.00 0.00 0.00 47
20260504035022 67 188 9.0 10.0 0.00 0.00 0.00 46
20260504034520 67 191 6.0 9.0 0.00 0.00 0.00 46
20260504034017 67 203 7.0 11.0 0.00 0.00 0.00 46
20260504033515 67 163 5.0 10.0 0.00 0.00 0.00 46
20260504033012 67 209 6.0 9.0 0.00 0.00 0.00 46
20260504032509 67 180 7.0 8.0 0.00 0.00 0.00 46
20260504032005 67 219 7.0 7.0 0.00 0.00 0.00 46
20260504031502 67 181 5.0 6.0 0.00 0.00 0.00 47
20260504030959 67 201 5.0 7.0 0.00 0.00 0.00 47
20260504030456 67 183 7.0 9.0 0.00 0.00 0.00 48
20260504025952 67 216 2.0 7.0 0.00 0.00 0.00 48
20260504025449 66 183 2.0 6.0 0.00 0.00 0.00 48
20260504024946 66 220 5.0 7.0 0.00 0.00 0.00 48
20260504024443 66 212 2.0 7.0 0.00 0.00 0.00 48
20260504023940 66 195 3.0 5.0 0.00 0.00 0.00 49
20260504023436 66 223 4.0 5.0 0.00 0.00 0.00 48
20260504022932 66 224 2.0 5.0 0.00 0.00 0.00 48
20260504022428 67 198 2.0 7.0 0.00 0.00 0.00 47
20260504021925 67 225 2.0 4.0 0.00 0.00 0.00 48
20260504021422 67 188 4.0 4.0 0.00 0.00 0.00 47
20260504020920 67 197 2.0 3.0 0.00 0.00 0.00 46
20260504020416 67 247 1.0 4.0 0.00 0.00 0.00 46
20260504015913 67 208 2.0 4.0 0.00 0.00 0.00 46
20260504015409 68 208 2.0 4.0 0.00 0.00 0.00 45
20260504014905 68 225 1.0 4.0 0.00 0.00 0.00 45
20260504014401 68 214 2.0 4.0 0.00 0.00 0.00 44
20260504013858 68 225 4.0 5.0 0.00 0.00 0.00 44
20260504013356 68 195 2.0 4.0 0.00 0.00 0.00 44
20260504012853 68 196 3.0 5.0 0.00 0.00 0.00 44
20260504012350 69 192 4.0 5.0 0.00 0.00 0.00 44
20260504011848 69 197 3.0 5.0 0.00 0.00 0.00 44
20260504011344 69 196 3.0 7.0 0.00 0.00 0.00 43
20260504010840 69 203 4.0 6.0 0.00 0.00 0.00 43
20260504010336 69 193 2.0 6.0 0.00 0.00 0.00 44
20260504005833 69 196 4.0 4.0 0.00 0.00 0.00 43
20260504005330 70 197 3.0 4.0 0.00 0.00 0.00 43
20260504004827 71 199 4.0 4.0 0.00 0.00 0.00 42
20260504004325 71 187 3.0 4.0 0.00 0.00 0.00 42
20260504003821 71 198 4.0 4.0 0.00 0.00 0.00 41
20260504003318 72 212 2.0 4.0 0.00 0.00 0.00 41
20260504002814 72 201 4.0 4.0 0.00 0.00 0.00 39
20260504002311 73 188 2.0 4.0 0.00 0.00 0.00 39
20260504001809 74 195 5.0 6.0 0.00 0.00 0.00 37
20260504001306 74 197 4.0 8.0 0.00 0.00 0.00 37
20260504000803 75 248 1.0 8.0 0.00 0.00 0.00 36
20260504000300 75 214 7.0 8.0 0.00 0.00 0.00 35
20260503235758 76 196 4.0 10.0 0.00 0.00 0.00 35
20260503235255 76 216 6.0 6.0 0.00 0.00 0.00 35
20260503234753 76 208 5.0 7.0 0.00 0.00 0.00 34
20260503234250 76 203 3.0 8.0 0.00 0.00 0.00 35
20260503233747 77 200 5.0 8.0 0.00 0.00 0.00 35
20260503233243 78 217 3.0 6.0 0.00 0.00 0.00 33
20260503232740 78 201 7.0 12.0 0.00 0.00 0.00 33
20260503232237 78 217 5.0 8.0 0.00 0.00 0.00 33
20260503231735 78 195 5.0 9.0 0.00 0.00 0.00 33
20260503231232 78 221 4.0 14.0 0.00 0.00 0.00 34
20260503230728 78 192 5.0 16.0 0.00 0.00 0.00 33
20260503230226 78 180 8.0 11.0 0.00 0.00 0.00 33
20260503225723 78 202 8.0 15.0 0.00 0.00 0.00 33
20260503225223 78 215 6.0 13.0 0.00 0.00 0.00 33
20260503224720 78 195 6.0 9.0 0.00 0.00 0.00 33
20260503224218 78 196 3.0 13.0 0.00 0.00 0.00 34
20260503223715 78 204 8.0 9.0 0.00 0.00 0.00 32
20260503223213 78 199 10.0 14.0 0.00 0.00 0.00 33
20260503222709 79 198 6.0 10.0 0.00 0.00 0.00 33
20260503222207 78 272 4.0 15.0 0.00 0.00 0.00 34
20260503221705 79 218 10.0 17.0 0.00 0.00 0.00 32
20260503221202 79 187 9.0 14.0 0.00 0.00 0.00 33
20260503220659 79 219 8.0 17.0 0.00 0.00 0.00 31
20260503220155 79 218 10.0 14.0 0.00 0.00 0.00 32
20260503215652 79 198 7.0 10.0 0.00 0.00 0.00 33
20260503215149 79 251 3.0 13.0 0.00 0.00 0.00 35
20260503214648 79 206 8.0 12.0 0.00 0.00 0.00 33
20260503214143 79 256 2.0 15.0 0.00 0.00 0.00 34
20260503213637 78 193 9.0 15.0 0.00 0.00 0.00 32
20260503213133 78 194 9.0 15.0 0.00 0.00 0.00 33
20260503212631 78 34 4.0 9.0 0.00 0.00 0.00 36
20260503212128 78 234 6.0 17.0 0.00 0.00 0.00 35
20260503211626 78 208 8.0 18.0 0.00 0.00 0.00 34
20260503211121 78 285 5.0 13.0 0.00 0.00 0.00 35
20260503210618 78 217 4.0 15.0 0.00 0.00 0.00 36
20260503210115 78 186 5.0 14.0 0.00 0.00 0.00 36
20260503205611 78 212 7.0 14.0 0.00 0.00 0.00 34
20260503205107 78 196 4.0 13.0 0.00 0.00 0.00 37
20260503204604 78 201 12.0 13.0 0.00 0.00 0.00 34
20260503204102 78 207 3.0 12.0 0.00 0.00 0.00 36
20260503203558 77 205 6.0 17.0 0.00 0.00 0.00 36
20260503203055 77 197 5.0 15.0 0.00 0.00 0.00 38
20260503202553 77 200 8.0 16.0 0.00 0.00 0.00 39
20260503202051 77 215 9.0 13.0 0.00 0.00 0.00 37
20260503201549 77 211 7.0 13.0 0.00 0.00 0.00 39
20260503201046 76 272 4.0 10.0 0.00 0.00 0.00 38
20260503200542 76 184 6.0 16.0 0.00 0.00 0.00 38
20260503200039 76 199 11.0 12.0 0.00 0.00 0.00 38
20260503195536 75 209 12.0 16.0 0.00 0.00 0.00 38
20260503195033 75 220 3.0 14.0 0.00 0.00 0.00 41
20260503194530 76 216 4.0 11.0 0.00 0.00 0.00 37
20260503194029 75 189 14.0 17.0 0.00 0.00 0.00 37
20260503193527 75 212 5.0 11.0 0.00 0.00 0.00 39
20260503193022 75 202 9.0 10.0 0.00 0.00 0.00 38
20260503192518 74 189 12.0 16.0 0.00 0.00 0.00 37
20260503192014 74 211 6.0 13.0 0.00 0.00 0.00 38
20260503191511 74 225 8.0 16.0 0.00 0.00 0.00 38
20260503191008 74 213 12.0 15.0 0.00 0.00 0.00 38
20260503190505 74 203 7.0 11.0 0.00 0.00 0.00 37
20260503190002 73 258 5.0 9.0 0.00 0.00 0.00 38
20260503185458 74 187 10.0 15.0 0.00 0.00 0.00 37
20260503184957 74 182 9.0 12.0 0.00 0.00 0.00 38
20260503184454 73 216 4.0 9.0 0.00 0.00 0.00 39
20260503183950 73 207 9.0 15.0 0.00 0.00 0.00 36
20260503183447 73 217 9.0 12.0 0.00 0.00 0.00 37
20260503182944 72 207 8.0 14.0 0.00 0.00 0.00 39
20260503182443 72 232 3.0 12.0 0.00 0.00 0.00 39
20260503181940 71 175 11.0 12.0 0.00 0.00 0.00 38
20260503181437 71 170 9.0 18.0 0.00 0.00 0.00 38
20260503180933 71 220 10.0 18.0 0.00 0.00 0.00 36
20260503180431 71 199 11.0 15.0 0.00 0.00 0.00 38
20260503175928 71 186 8.0 17.0 0.00 0.00 0.00 38
20260503175426 71 203 9.0 15.0 0.00 0.00 0.00 37
20260503174921 70 203 5.0 16.0 0.00 0.00 0.00 38
20260503174420 70 180 5.0 13.0 0.00 0.00 0.00 38
20260503173920 70 184 6.0 13.0 0.00 0.00 0.00 42
20260503173416 69 207 8.0 14.0 0.00 0.00 0.00 40
20260503172913 69 203 9.0 15.0 0.00 0.00 0.00 40
20260503172411 69 207 6.0 14.0 0.00 0.00 0.00 41
20260503171907 69 269 3.0 12.0 0.00 0.00 0.00 42
20260503171403 69 174 11.0 13.0 0.00 0.00 0.00 38
20260503170901 69 254 5.0 14.0 0.00 0.00 0.00 39
20260503170357 68 263 4.0 16.0 0.00 0.00 0.00 42
20260503150749 61 202 4.0 10.0 0.00 0.00 0.00 47
20260503150245 60 218 6.0 13.0 0.00 0.00 0.00 48
20260503140210 55 198 6.0 13.0 0.00 0.00 0.00 55
20260503131139 51 250 3.0 11.0 0.00 0.00 0.00 60
20260503130637 51 198 2.0 12.0 0.00 0.00 0.00 60
20260503130135 51 211 4.0 11.0 0.00 0.00 0.00 58
20260503110527 48 151 3.0 6.0 0.00 0.00 0.00 59
20260503090414 48 143 2.0 5.0 0.00 0.00 0.00 58
20260503081340 45 219 1.0 2.0 0.00 0.00 0.00 67
20260503080837 44 183 2.0 2.0 0.00 0.00 0.00 69
20260503080334 44 141 0.0 1.0 0.00 0.00 0.00 73
20260503072810 44 125 1.0 1.0 0.00 0.00 0.00 74
20260503072308 44 140 0.0 2.0 0.00 0.00 0.00 70
20260503071804 43 143 0.0 2.0 0.00 0.00 0.00 75
20260503071301 42 212 0.0 0.0 0.00 0.00 0.00 77
20260503070757 42 174 0.0 1.0 0.00 0.00 0.00 75
20260503070255 42 157 0.0 2.0 0.00 0.00 0.00 73
20260503060220 44 154 0.0 1.0 0.00 0.00 0.00 73